Time,TemperatureF,DewpointF,PressureIn,WindDirection,WindDirectionDegrees,WindSpeedMPH,WindSpeedGustMPH,Humidity,HourlyPrecipIn,Conditions,Clouds,dailyrainin,SoftwareType,DateUTC
2014-09-23 00:22:00,56.0,51.0,30.20,NNW,334,0.0,0.0,83,0.00,,,0.00,,2014-09-23 05:22:00,
2014-09-23 00:53:00,55.0,51.0,30.19,NNW,335,0.0,0.0,85,0.00,,,0.00,,2014-09-23 05:53:00,
2014-09-23 01:22:00,54.0,50.0,30.19,NNW,335,0.0,0.0,86,0.00,,,0.00,,2014-09-23 06:22:00,
2014-09-23 01:52:00,54.0,50.0,30.19,NNW,334,0.0,0.0,87,0.00,,,0.00,,2014-09-23 06:52:00,
2014-09-23 02:22:00,53.0,49.0,30.19,NNW,334,0.0,0.0,87,0.00,,,0.00,,2014-09-23 07:22:00,
2014-09-23 02:42:00,53.0,50.0,30.19,NNW,334,0.0,0.0,88,0.00,,,0.00,,2014-09-23 07:42:00,
2014-09-23 02:55:00,53.0,50.0,30.19,NNW,334,0.0,0.0,88,0.00,,,0.00,,2014-09-23 07:55:00,
2014-09-23 03:12:00,53.0,50.0,30.18,NNW,335,0.0,0.0,88,0.00,,,0.00,,2014-09-23 08:12:00,
2014-09-23 03:22:00,54.0,50.0,30.17,NNW,334,0.0,0.0,87,0.00,,,0.00,,2014-09-23 08:22:00,
2014-09-23 03:42:00,54.0,50.0,30.17,NE,38,0.0,1.0,86,0.00,,,0.00,,2014-09-23 08:42:00,
2014-09-23 03:52:00,55.0,50.0,30.17,East,80,0.0,0.0,83,0.00,,,0.00,,2014-09-23 08:52:00,
2014-09-23 04:22:00,55.0,49.0,30.17,East,99,0.0,5.0,81,0.00,,,0.00,,2014-09-23 09:22:00,
2014-09-23 04:44:00,55.0,49.0,30.17,ESE,115,0.0,0.0,80,0.00,,,0.00,,2014-09-23 09:44:00,
2014-09-23 04:54:00,55.0,49.0,30.18,ESE,103,0.0,1.0,80,0.00,,,0.00,,2014-09-23 09:54:00,
2014-09-23 05:13:00,55.0,49.0,30.19,ESE,103,0.0,0.0,80,0.00,,,0.00,,2014-09-23 10:13:00,
2014-09-23 05:23:00,54.0,48.0,30.18,ESE,110,0.0,0.0,80,0.00,,,0.00,,2014-09-23 10:23:00,
2014-09-23 05:43:00,55.0,49.0,30.18,ESE,113,0.0,1.0,80,0.00,,,0.00,,2014-09-23 10:43:00,
2014-09-23 05:53:00,55.0,49.0,30.18,ESE,119,0.0,0.0,79,0.00,,,0.00,,2014-09-23 10:53:00,
2014-09-23 06:22:00,56.0,49.0,30.18,ENE,58,0.0,1.0,77,0.00,,,0.00,,2014-09-23 11:22:00,
2014-09-23 06:42:00,56.0,49.0,30.18,SSE,147,0.0,1.0,77,0.00,,,0.00,,2014-09-23 11:42:00,
2014-09-23 06:53:00,55.0,48.0,30.19,ENE,69,0.0,4.0,77,0.00,,,0.00,,2014-09-23 11:53:00,
2014-09-23 07:22:00,55.0,48.0,30.20,SE,145,0.0,7.0,78,0.00,,,0.00,,2014-09-23 12:22:00,
2014-09-23 07:42:00,55.0,49.0,30.21,SSE,155,0.0,4.0,79,0.00,,,0.00,,2014-09-23 12:42:00,
2014-09-23 07:52:00,55.0,49.0,30.21,SSE,153,0.0,0.0,79,0.00,,,0.00,,2014-09-23 12:52:00,
2014-09-23 08:22:00,55.0,49.0,30.21,SSE,154,0.0,0.0,79,0.00,,,0.00,,2014-09-23 13:22:00,
2014-09-23 08:42:00,55.0,49.0,30.21,SSE,154,0.0,0.0,79,0.00,,,0.00,,2014-09-23 13:42:00,
2014-09-23 08:53:00,56.0,50.0,30.22,SSE,153,0.0,0.0,80,0.00,,,0.00,,2014-09-23 13:53:00,
2014-09-23 09:23:00,59.0,51.0,30.22,SE,125,0.0,6.0,76,0.00,,,0.00,,2014-09-23 14:23:00,
2014-09-23 09:42:00,60.0,51.0,30.23,South,184,0.0,9.0,73,0.00,,,0.00,,2014-09-23 14:42:00,
2014-09-23 09:52:00,62.0,53.0,30.23,SSE,165,0.0,5.0,72,0.00,,,0.00,,2014-09-23 14:52:00,
2014-09-23 10:23:00,63.0,53.0,30.22,ESE,113,0.0,4.0,71,0.00,,,0.00,,2014-09-23 15:23:00,
2014-09-23 10:43:00,64.0,54.0,30.22,ESE,105,0.0,7.0,69,0.00,,,0.00,,2014-09-23 15:43:00,
2014-09-23 10:54:00,65.0,54.0,30.21,SSE,148,0.0,7.0,67,0.00,,,0.00,,2014-09-23 15:54:00,
2014-09-23 11:24:00,67.0,54.0,30.21,South,190,0.0,8.0,63,0.00,,,0.00,,2014-09-23 16:24:00,
2014-09-23 11:53:00,66.0,53.0,30.20,ESE,119,1.0,10.0,62,0.00,,,0.00,,2014-09-23 16:53:00,